TimeMST,TemperatureF,Dew PointF,Humidity,Sea Level PressureIn,VisibilityMPH,Wind Direction,Wind SpeedMPH,Gust SpeedMPH,PrecipitationIn,Events,Conditions,WindDirDegrees,DateUTC
12:15 AM,32.0,30.2,93,30.27,10.0,SSE,5.8,-,N/A,,Clear,160,2012-10-13 07:15:00
12:35 AM,32.0,30.2,93,30.27,10.0,SSE,5.8,-,N/A,,Clear,160,2012-10-13 07:35:00
1:35 AM,30.2,28.4,93,30.28,10.0,South,8.1,-,N/A,,Clear,170,2012-10-13 08:35:00
2:15 AM,30.2,28.4,93,30.28,10.0,SSE,6.9,-,N/A,,Clear,160,2012-10-13 09:15:00
2:35 AM,30.2,28.4,93,30.28,10.0,Calm,Calm,-,N/A,,Clear,0,2012-10-13 09:35:00
3:15 AM,32.0,28.4,87,30.28,10.0,SSE,5.8,-,N/A,,Clear,160,2012-10-13 10:15:00
3:55 AM,30.2,28.4,93,30.28,10.0,South,5.8,-,N/A,,Clear,170,2012-10-13 10:55:00
4:35 AM,28.4,28.4,100,30.28,10.0,Calm,Calm,-,N/A,,Clear,0,2012-10-13 11:35:00
4:55 AM,30.2,28.4,93,30.29,10.0,Calm,Calm,-,N/A,,Clear,0,2012-10-13 11:55:00
5:15 AM,30.2,28.4,93,30.30,10.0,Calm,Calm,-,N/A,,Clear,0,2012-10-13 12:15:00
5:35 AM,30.2,28.4,93,30.30,10.0,Calm,Calm,-,N/A,,Clear,0,2012-10-13 12:35:00
5:55 AM,30.2,28.4,93,30.31,10.0,SSE,4.6,-,N/A,,Clear,150,2012-10-13 12:55:00
6:55 AM,28.4,28.4,100,30.32,10.0,Calm,Calm,-,N/A,,Scattered Clouds,0,2012-10-13 13:55:00
7:15 AM,30.2,28.4,93,30.32,10.0,Calm,Calm,-,N/A,,Clear,0,2012-10-13 14:15:00
7:35 AM,32.0,32.0,100,30.33,10.0,Calm,Calm,-,N/A,,Clear,0,2012-10-13 14:35:00
7:55 AM,35.6,33.8,93,30.33,10.0,Calm,Calm,-,N/A,,Clear,0,2012-10-13 14:55:00
8:15 AM,39.2,35.6,87,30.34,10.0,Calm,Calm,-,N/A,,Clear,0,2012-10-13 15:15:00
9:35 AM,46.4,35.6,66,30.37,10.0,NNW,8.1,-,N/A,,Clear,330,2012-10-13 16:35:00
9:55 AM,46.4,35.6,66,30.38,10.0,North,9.2,-,N/A,,Clear,360,2012-10-13 16:55:00
10:35 AM,48.2,35.6,62,30.37,10.0,NNW,10.4,-,N/A,,Clear,330,2012-10-13 17:35:00
10:55 AM,50.0,37.4,62,30.38,10.0,North,8.1,-,N/A,,Clear,350,2012-10-13 17:55:00
11:15 AM,50.0,37.4,62,30.38,10.0,NNW,9.2,-,N/A,,Clear,340,2012-10-13 18:15:00
11:35 AM,50.0,37.4,62,30.37,10.0,NW,6.9,-,N/A,,Clear,310,2012-10-13 18:35:00
11:55 AM,51.8,37.4,58,30.37,10.0,Calm,Calm,-,N/A,,Clear,0,2012-10-13 18:55:00
12:15 PM,53.6,39.2,58,30.37,10.0,North,9.2,-,N/A,,Clear,360,2012-10-13 19:15:00
12:35 PM,55.4,37.4,51,30.37,10.0,Calm,Calm,-,N/A,,Clear,0,2012-10-13 19:35:00
12:55 PM,55.4,37.4,51,30.37,10.0,NNW,5.8,-,N/A,,Clear,340,2012-10-13 19:55:00
1:15 PM,57.2,37.4,48,30.36,10.0,NW,9.2,-,N/A,,Clear,320,2012-10-13 20:15:00
1:35 PM,55.4,37.4,51,30.35,10.0,NNW,5.8,-,N/A,,Clear,340,2012-10-13 20:35:00
1:55 PM,57.2,37.4,48,30.34,10.0,Calm,Calm,-,N/A,,Clear,0,2012-10-13 20:55:00
2:15 PM,57.2,37.4,48,30.34,10.0,NNW,6.9,-,N/A,,Clear,340,2012-10-13 21:15:00
2:35 PM,59.0,37.4,45,30.34,10.0,NNW,10.4,-,N/A,,Clear,340,2012-10-13 21:35:00
2:55 PM,59.0,37.4,45,30.34,10.0,NNW,8.1,-,N/A,,Clear,340,2012-10-13 21:55:00
3:15 PM,59.0,37.4,45,30.34,10.0,North,5.8,-,N/A,,Clear,360,2012-10-13 22:15:00
3:35 PM,59.0,37.4,45,30.33,10.0,North,9.2,-,N/A,,Clear,10,2012-10-13 22:35:00
3:55 PM,59.0,35.6,42,30.34,10.0,NNW,6.9,-,N/A,,Clear,340,2012-10-13 22:55:00
4:15 PM,59.0,35.6,42,30.33,10.0,North,9.2,-,N/A,,Clear,350,2012-10-13 23:15:00
4:35 PM,59.0,35.6,42,30.33,10.0,NNW,11.5,-,N/A,,Clear,340,2012-10-13 23:35:00
4:55 PM,59.0,35.6,42,30.34,10.0,North,9.2,-,N/A,,Clear,350,2012-10-13 23:55:00
5:15 PM,57.2,35.6,44,30.34,10.0,NNW,9.2,-,N/A,,Clear,340,2012-10-14 00:15:00
5:35 PM,57.2,35.6,44,30.34,10.0,NNW,8.1,-,N/A,,Clear,340,2012-10-14 00:35:00
5:55 PM,53.6,35.6,51,30.34,10.0,Calm,Calm,-,N/A,,Clear,0,2012-10-14 00:55:00
6:15 PM,51.8,35.6,54,30.34,10.0,NNW,5.8,-,N/A,,Clear,340,2012-10-14 01:15:00
6:35 PM,50.0,35.6,58,30.35,10.0,Calm,Calm,-,N/A,,Clear,0,2012-10-14 01:35:00
7:15 PM,50.0,35.6,58,30.37,10.0,Calm,Calm,-,N/A,,Clear,0,2012-10-14 02:15:00
7:35 PM,46.4,37.4,71,30.37,10.0,Calm,Calm,-,N/A,,Clear,0,2012-10-14 02:35:00
7:55 PM,44.6,37.4,76,30.38,10.0,Calm,Calm,-,N/A,,Clear,0,2012-10-14 02:55:00
8:15 PM,44.6,37.4,76,30.39,10.0,Calm,Calm,-,N/A,,Clear,0,2012-10-14 03:15:00
8:35 PM,46.4,37.4,71,30.39,10.0,Calm,Calm,-,N/A,,Clear,0,2012-10-14 03:35:00
8:55 PM,48.2,37.4,66,30.39,10.0,Calm,Calm,-,N/A,,Clear,0,2012-10-14 03:55:00
9:15 PM,41.0,35.6,81,30.40,10.0,SSE,5.8,-,N/A,,Clear,150,2012-10-14 04:15:00
9:35 PM,41.0,37.4,87,30.40,10.0,Calm,Calm,-,N/A,,Clear,0,2012-10-14 04:35:00
10:35 PM,37.4,35.6,93,30.40,10.0,South,5.8,-,N/A,,Clear,170,2012-10-14 05:35:00
10:55 PM,37.4,35.6,93,30.40,10.0,SSE,4.6,-,N/A,,Clear,160,2012-10-14 05:55:00
11:15 PM,37.4,35.6,93,30.40,10.0,SSE,5.8,-,N/A,,Clear,160,2012-10-14 06:15:00
11:35 PM,37.4,35.6,93,30.39,10.0,SSE,8.1,-,N/A,,Clear,160,2012-10-14 06:35:00